Time,TemperatureF,DewpointF,PressureIn,WindDirection,WindDirectionDegrees,WindSpeedMPH,WindSpeedGustMPH,Humidity,HourlyPrecipIn,Conditions,Clouds,dailyrainin,SoftwareType,DateUTC
2013-04-29 00:04:00,55.4,55.0,30.10,ESE,103,0.0,-999.0,97,-99.99,,,0.01,weatherlink.com 1.10,2013-04-29 04:04:00,
2013-04-29 00:19:00,55.5,55.0,30.10,ESE,103,0.0,-999.0,97,-99.99,,,0.03,weatherlink.com 1.10,2013-04-29 04:19:00,
2013-04-29 00:56:00,55.8,55.0,30.09,ESE,103,1.0,-999.0,97,-99.99,,,0.09,weatherlink.com 1.10,2013-04-29 04:56:00,
2013-04-29 01:04:00,56.6,56.0,30.09,ESE,102,0.0,-999.0,97,-99.99,,,0.20,weatherlink.com 1.10,2013-04-29 05:04:00,
2013-04-29 01:19:00,56.4,56.0,30.08,ESE,102,0.0,-999.0,97,-99.99,,,0.23,weatherlink.com 1.10,2013-04-29 05:19:00,
2013-04-29 01:56:00,56.3,56.0,30.08,ESE,102,0.0,-999.0,97,-99.99,,,0.26,weatherlink.com 1.10,2013-04-29 05:56:00,
2013-04-29 02:04:00,55.9,55.0,30.07,ESE,102,0.0,-999.0,97,-99.99,,,0.30,weatherlink.com 1.10,2013-04-29 06:04:00,
2013-04-29 02:19:00,55.8,55.0,30.07,ESE,102,0.0,-999.0,97,-99.99,,,0.31,weatherlink.com 1.10,2013-04-29 06:19:00,
2013-04-29 02:56:00,55.8,55.0,30.06,ESE,102,0.0,-999.0,97,-99.99,,,0.32,weatherlink.com 1.10,2013-04-29 06:56:00,
2013-04-29 03:04:00,55.8,55.0,30.05,ESE,102,0.0,-999.0,97,-99.99,,,0.36,weatherlink.com 1.10,2013-04-29 07:04:00,
2013-04-29 03:19:00,55.9,55.0,30.04,ESE,102,0.0,-999.0,97,-99.99,,,0.38,weatherlink.com 1.10,2013-04-29 07:19:00,
2013-04-29 03:56:00,55.8,55.0,30.04,ESE,102,0.0,-999.0,97,-99.99,,,0.39,weatherlink.com 1.10,2013-04-29 07:56:00,
2013-04-29 04:04:00,56.0,56.0,30.04,ESE,102,0.0,-999.0,98,-99.99,,,0.43,weatherlink.com 1.10,2013-04-29 08:04:00,
2013-04-29 04:19:00,56.1,56.0,30.03,ESE,102,0.0,-999.0,98,-99.99,,,0.44,weatherlink.com 1.10,2013-04-29 08:19:00,
2013-04-29 04:56:00,56.2,55.0,30.03,ESE,103,0.0,-999.0,97,-99.99,,,0.45,weatherlink.com 1.10,2013-04-29 08:56:00,
2013-04-29 05:04:00,56.2,55.0,30.03,ESE,103,0.0,-999.0,97,-99.99,,,0.47,weatherlink.com 1.10,2013-04-29 09:04:00,
2013-04-29 05:19:00,56.3,56.0,30.03,ESE,103,0.0,-999.0,98,-99.99,,,0.47,weatherlink.com 1.10,2013-04-29 09:19:00,
2013-04-29 05:56:00,56.4,56.0,30.02,ESE,103,0.0,-999.0,98,-99.99,,,0.48,weatherlink.com 1.10,2013-04-29 09:56:00,
2013-04-29 06:04:00,56.7,56.0,30.02,ESE,103,0.0,-999.0,98,-99.99,,,0.50,weatherlink.com 1.10,2013-04-29 10:04:00,
2013-04-29 06:19:00,56.8,56.0,30.03,ESE,103,0.0,-999.0,98,-99.99,,,0.51,weatherlink.com 1.10,2013-04-29 10:19:00,
2013-04-29 06:56:00,56.8,56.0,30.03,ESE,103,0.0,-999.0,98,-99.99,,,0.51,weatherlink.com 1.10,2013-04-29 10:56:00,
2013-04-29 07:04:00,57.2,57.0,30.04,ESE,102,0.0,-999.0,98,-99.99,,,0.53,weatherlink.com 1.10,2013-04-29 11:04:00,
2013-04-29 07:19:00,57.2,57.0,30.04,ESE,103,0.0,-999.0,98,-99.99,,,0.53,weatherlink.com 1.10,2013-04-29 11:19:00,
2013-04-29 07:56:00,57.3,57.0,30.05,ESE,102,0.0,-999.0,98,-99.99,,,0.53,weatherlink.com 1.10,2013-04-29 11:56:00,
2013-04-29 08:04:00,57.6,57.0,30.05,ESE,102,0.0,-999.0,98,-99.99,,,0.55,weatherlink.com 1.10,2013-04-29 12:04:00,
2013-04-29 08:19:00,57.7,57.0,30.05,ESE,103,0.0,-999.0,98,-99.99,,,0.55,weatherlink.com 1.10,2013-04-29 12:19:00,
2013-04-29 08:56:00,57.8,57.0,30.05,ESE,103,0.0,-999.0,98,-99.99,,,0.56,weatherlink.com 1.10,2013-04-29 12:56:00,
2013-04-29 09:04:00,58.8,58.0,30.05,ESE,102,0.0,-999.0,98,-99.99,,,0.57,weatherlink.com 1.10,2013-04-29 13:04:00,
2013-04-29 09:19:00,59.3,59.0,30.06,ESE,103,0.0,-999.0,98,-99.99,,,0.57,weatherlink.com 1.10,2013-04-29 13:19:00,
2013-04-29 09:56:00,59.4,59.0,30.05,ESE,103,0.0,-999.0,98,-99.99,,,0.58,weatherlink.com 1.10,2013-04-29 13:56:00,
2013-04-29 10:04:00,60.0,60.0,30.04,ESE,103,0.0,-999.0,98,-99.99,,,0.59,weatherlink.com 1.10,2013-04-29 14:04:00,
2013-04-29 10:19:00,60.3,60.0,30.04,ESE,103,0.0,-999.0,98,-99.99,,,0.59,weatherlink.com 1.10,2013-04-29 14:19:00,
2013-04-29 10:56:00,60.8,60.0,30.05,ESE,103,0.0,-999.0,98,-99.99,,,0.59,weatherlink.com 1.10,2013-04-29 14:56:00,
2013-04-29 11:04:00,61.4,61.0,30.05,ESE,102,0.0,-999.0,98,-99.99,,,0.61,weatherlink.com 1.10,2013-04-29 15:04:00,
2013-04-29 11:19:00,61.7,61.0,30.05,ESE,103,0.0,-999.0,98,-99.99,,,0.61,weatherlink.com 1.10,2013-04-29 15:19:00,
2013-04-29 11:56:00,62.1,62.0,30.05,ESE,103,0.0,-999.0,98,-99.99,,,0.61,weatherlink.com 1.10,2013-04-29 15:56:00,
2013-04-29 12:04:00,62.6,62.0,30.05,ESE,102,0.0,-999.0,98,-99.99,,,0.62,weatherlink.com 1.10,2013-04-29 16:04:00,
2013-04-29 12:19:00,62.5,62.0,30.05,ESE,103,0.0,-999.0,98,-99.99,,,0.62,weatherlink.com 1.10,2013-04-29 16:19:00,
2013-04-29 12:56:00,62.8,62.0,30.05,ESE,103,0.0,-999.0,98,-99.99,,,0.63,weatherlink.com 1.10,2013-04-29 16:56:00,
2013-04-29 13:04:00,63.4,63.0,30.04,ESE,102,0.0,-999.0,97,-99.99,,,0.63,weatherlink.com 1.10,2013-04-29 17:04:00,
2013-04-29 13:19:00,63.4,63.0,30.04,ESE,102,0.0,-999.0,97,-99.99,,,0.63,weatherlink.com 1.10,2013-04-29 17:19:00,
2013-04-29 13:56:00,63.6,63.0,30.03,ESE,102,0.0,-999.0,97,-99.99,,,0.63,weatherlink.com 1.10,2013-04-29 17:56:00,
2013-04-29 14:04:00,64.0,63.0,30.02,ESE,103,0.0,-999.0,95,-99.99,,,0.63,weatherlink.com 1.10,2013-04-29 18:04:00,
2013-04-29 14:19:00,64.1,63.0,30.02,ESE,102,0.0,-999.0,96,-99.99,,,0.64,weatherlink.com 1.10,2013-04-29 18:19:00,
2013-04-29 14:56:00,64.3,63.0,30.02,ESE,103,0.0,-999.0,96,-99.99,,,0.64,weatherlink.com 1.10,2013-04-29 18:56:00,
2013-04-29 15:04:00,65.2,63.0,30.01,ESE,102,0.0,-999.0,92,-99.99,,,0.64,weatherlink.com 1.10,2013-04-29 19:04:00,
2013-04-29 15:20:00,65.1,62.0,30.01,ESE,103,0.0,-999.0,90,-99.99,,,0.64,weatherlink.com 1.10,2013-04-29 19:20:00,
2013-04-29 15:56:00,64.9,63.0,30.00,ESE,103,0.0,-999.0,92,-99.99,,,0.64,weatherlink.com 1.10,2013-04-29 19:56:00,
2013-04-29 16:04:00,66.5,63.0,29.98,ESE,103,0.0,-999.0,87,-99.99,,,0.64,weatherlink.com 1.10,2013-04-29 20:04:00,
2013-04-29 16:19:00,67.5,63.0,29.98,ESE,103,1.0,-999.0,85,-99.99,,,0.64,weatherlink.com 1.10,2013-04-29 20:19:00,
2013-04-29 16:56:00,68.5,63.0,29.97,ESE,103,0.0,-999.0,81,-99.99,,,0.64,weatherlink.com 1.10,2013-04-29 20:56:00,
2013-04-29 17:03:00,68.8,63.0,29.97,ESE,103,0.0,-999.0,81,-99.99,,,0.64,weatherlink.com 1.10,2013-04-29 21:03:00,
2013-04-29 17:18:00,68.9,63.0,29.97,ESE,103,0.0,-999.0,80,-99.99,,,0.64,weatherlink.com 1.10,2013-04-29 21:18:00,
2013-04-29 17:56:00,68.8,63.0,29.97,ESE,103,0.0,-999.0,81,-99.99,,,0.64,weatherlink.com 1.10,2013-04-29 21:56:00,
2013-04-29 18:04:00,68.7,63.0,29.97,ESE,103,0.0,-999.0,81,-99.99,,,0.64,weatherlink.com 1.10,2013-04-29 22:04:00,
2013-04-29 18:19:00,68.9,62.0,29.97,ESE,103,0.0,-999.0,79,-99.99,,,0.64,weatherlink.com 1.10,2013-04-29 22:19:00,
2013-04-29 18:56:00,68.8,62.0,29.97,ESE,103,0.0,-999.0,79,-99.99,,,0.64,weatherlink.com 1.10,2013-04-29 22:56:00,
2013-04-29 19:04:00,68.0,63.0,29.98,ESE,103,0.0,-999.0,84,-99.99,,,0.65,weatherlink.com 1.10,2013-04-29 23:04:00,
2013-04-29 19:19:00,67.6,63.0,29.98,ESE,103,0.0,-999.0,86,-99.99,,,0.65,weatherlink.com 1.10,2013-04-29 23:19:00,
2013-04-29 19:56:00,67.4,64.0,29.98,ESE,103,0.0,-999.0,87,-99.99,,,0.65,weatherlink.com 1.10,2013-04-29 23:56:00,
2013-04-29 20:04:00,67.1,64.0,29.99,ESE,103,0.0,-999.0,88,-99.99,,,0.65,weatherlink.com 1.10,2013-04-30 00:04:00,
2013-04-29 20:19:00,66.7,63.0,29.99,ESE,102,0.0,-999.0,89,-99.99,,,0.65,weatherlink.com 1.10,2013-04-30 00:19:00,
2013-04-29 21:04:00,65.2,63.0,30.01,ESE,103,0.0,-999.0,91,-99.99,,,0.65,weatherlink.com 1.10,2013-04-30 01:04:00,
2013-04-29 21:19:00,64.6,62.0,30.01,ESE,103,0.0,-999.0,91,-99.99,,,0.65,weatherlink.com 1.10,2013-04-30 01:19:00,
2013-04-29 21:55:00,64.2,62.0,30.01,ESE,103,0.0,-999.0,92,-99.99,,,0.65,weatherlink.com 1.10,2013-04-30 01:55:00,
2013-04-29 22:03:00,63.7,62.0,30.02,ESE,103,0.0,-999.0,93,-99.99,,,0.65,weatherlink.com 1.10,2013-04-30 02:03:00,
2013-04-29 22:18:00,63.6,62.0,30.02,ESE,102,0.0,-999.0,93,-99.99,,,0.65,weatherlink.com 1.10,2013-04-30 02:18:00,
2013-04-29 22:55:00,63.5,62.0,30.02,ESE,103,0.0,-999.0,93,-99.99,,,0.65,weatherlink.com 1.10,2013-04-30 02:55:00,
2013-04-29 23:03:00,62.9,61.0,30.02,ESE,103,0.0,-999.0,93,-99.99,,,0.65,weatherlink.com 1.10,2013-04-30 03:03:00,
2013-04-29 23:18:00,62.6,61.0,30.02,ESE,103,0.0,-999.0,93,-99.99,,,0.65,weatherlink.com 1.10,2013-04-30 03:18:00,
2013-04-29 23:55:00,62.3,61.0,30.02,ESE,102,0.0,-999.0,94,-99.99,,,0.65,weatherlink.com 1.10,2013-04-30 03:55:00,